Weather in Zahlé

Lebanon     33°50′44″N   35°54′06″E
temp.,
°C
wind,
m/s
gust,
m/s
humid.,
%
clouds,
%
prec.,
mm/h
press.,
hPa
HPBL,
m
7 may, fri
fri700:00+14wsw144596 0.0 1015102
03:00+13wsw23578 0.0 101427
06:00+12sw336820 0.0 101435
09:00+17sw23463 0.0 1015553
12:00+23w34290 0.0 10131566
15:00+24w752957 0.0 10121547
18:00+21w443547 0.0 1013808
21:00+16wnw1152100 0.0 101514
8 may, sat
sat800:00+14w01506 0.0 101611
03:00+13ene11430 0.0 101611
06:00+13ene11360 0.0 101611
09:00+22sse11140 0.0 1016419
12:00+27wsw22125 0.0 10141188
15:00+29w55165 0.0 10122081
18:00+27w33215 0.0 1013642
21:00+20ssw11335 0.0 101512
9 may, sun
sun900:00+19sse11355 0.0 101511
03:00+18ssw11315 0.0 101311
06:00+18sse112814 0.0 101311
09:00+27wsw351673 0.0 1013732
12:00+29w781478 0.0 10132148
15:00+29w8111486 0.0 10122915
18:00+27w581899 0.0 1012927
21:00+21sw1126100 0.0 101311
10 may, mon
mon1000:00+20ssw1226100 0.0 101211
03:00+19ssw3325100 0.0 101226
06:00+18ssw2230100 0.0 101211
09:00+24sw3527100 0.4 1012551
12:00+29wsw7121862 0.0 10102675
15:00+28wsw8111967 0.0 10092598
18:00+26wsw672654 0.0 10091359
21:00+20s22359 0.0 101014
11 may, tue
tue1100:00+19s22340 0.0 100912
03:00+18ssw22390 0.0 100913
06:00+17ssw22450 0.0 100911
09:00+23sw23280 0.0 1009590
12:00+28wsw49231 0.1 10082677
15:00+28wsw710252 0.1 10062574
18:00+25wnw44300 0.0 10061194
21:00+19w11440 0.0 100811